Location: Gellin
(53.4498°N, 14.3207°E)
Time: 21:51:50
(UTC+00:00)

YAOGAN 1 - Pass Details

Date: 03 March 2021
Orbit: 618 x 620 km, 97.9° (Epoch: 12 April)

Event Time Altitude Azimuth Distance (km) Brightness Sun altitude
Rises 17:38:40 0° 167° (SSE) 2,888 5.9 -8.8°
Reaches altitude 10° 17:40:51 10° 169° (S) 1,987 5.0 -9.2°
Maximum altitude 17:45:11 78° 256° (WSW) 643 2.8 -9.8°
Drops below altitude 10° 17:49:33 10° 343° (NNW) 2,002 5.4 -10.4°
Sets 17:51:45 0° 345° (NNW) 2,913 6.3 -10.8°
